Find Yuxing 3-05

NORAD ID: 68204 Int'l Des: NNA 2026-052 Owner: YUXING/ZHEJ Country: CN operational
LEOCIRCULARRETROGRADESSO

現在のビュー

3D地球を読み込み中...

About Yuxing 3-05

Yuxing 3-05 (NORAD 68204) is a satellite launched Mar 16, 2026 by YUXING/ZHEJ of CN. It operates in LEO, CIRCULAR, RETROGRADE, SSO orbit with a mass of 50.00 kg.

次回通過

Passes for default location (London). Set your location on the main map for personalized predictions.

高度履歴

Loading altitude history...

軌道要素

1 68204U 26052G 26166.13468025 .00004693 00000-0 27998-3 0 9995
2 68204 97.5336 241.0466 0009033 322.6708 37.3894 15.11593926 13742
Epoch: Jun 15, 2026 • Age: 8 hours

現在のステータス

高度 544.0 km
速度 7.60 km/s
衛星直下点 64.68°N, 149.51°E
打ち上げ日 Mar 16, 2026
運用期間 0.2 years
タイプ other

技術仕様

分類 Payload
質量 50.00 kg
乾燥質量 50.00 kg
総質量 50.00 kg
長さ 1.50 m
直径 1.00 m
スパン 1.50 m
形状 Box
製造者 XINGMU
バスタイプ YX3
フェーズステータス In Orbit
所有者/国 YUXING/ZHEJ/CN

Most Searched